www.pogodaiklimat.ru

Погода и климат >> Архив погоды >> Китай >> Хайнань >> Санху Дао


ПОГОДА на Санху Дао

  • Прогноз погоды на Санху Дао
  • Монитор погоды на Санху Дао

АРХИВ ПОГОДЫ на Санху Дао

Время (UTC), дата Ветер
(напр.,м/с)
 
Видим.   Явления Облачность Т
(С)
Тd
(С)
f
(%)
Тe
(С)
Тes
(С)
Комфортность P
(гПа)
Po
(гПа)
Тmin
(С)
Tmax
(С)
R
(мм)
R24
(мм)
S
(см)
00 13.09 СВ 2 22 км 3/3 600 м
[]
+27.9 +26.7 93 +43 +45 опасность
перегрева
1008.2 1007.6 2
03 13.09 СВ 2 21 км в посл. час дождь 4/4 600 м
[]
+31.2 +27.1 79 +49 +60 опасность
перегрева
1008.9 1008.3
06 13.09 СВ 3 27 км {дождь} 9/9 600 м
[]
+31.7 +26.7 75 +49 +50 опасность
перегрева
1006.9 1006.3 +26.2 0.1
09 13.09 С 3 27 км 9/9 600 м
[]
+29.7 +25.7 79 +44 +44 опасность
перегрева
1006.3 1005.7
12 13.09 С 3 25 км 9/9 600 м
[]
+28.1 +25.7 87 +42 +42 опасность
перегрева
1007.8 1007.2
15 13.09 В 1 19 км н/о +27.5 +25.7 90 +41 +41 опасность
перегрева
1008.6 1008.0
18 13.09 СВ 1 17 км н/о +26.7 +25.1 91 +38 +38 очень
душно
1006.9 1006.3 +32.5
21 13.09 СВ 1 23 км н/о +26.4 +24.6 90 +37 +37 очень
душно
1006.5 1005.9
00 14.09 В 2 22 км 9/9 600 м
[]
+28.2 +25.6 86 +42 +42 опасность
перегрева
1008.4 1007.8
03 14.09 СВ 2 26 км 9/9 600 м
[]
+31.6 +26.2 73 +48 +49 опасность
перегрева
1008.8 1008.2
06 14.09 С 3 29 км 6/6 600 м
[]
+32.2 +26.7 73 +50 +56 опасность
перегрева
1007.2 1006.6 +26.4
09 14.09 С 3 3800 м дождь 8/8 600 м
[]
+29.0 +26.2 85 +44 +45 опасность
перегрева
1006.4 1005.8
12 14.09 В 2 2800 м сильн. дождь 9/9 300 м
[]
+26.3 +24.9 92 +38 +38 очень
душно
1007.8 1007.2 5
15 14.09 СВ 2 17 км н/о +27.3 +25.9 92 +41 +41 опасность
перегрева
1008.7 1008.1
18 14.09 СВ 2 6000 м в посл. час дождь ?/? +26.2 +25.2 94 +38 +38 очень
душно
1007.4 1006.8 +32.5 6
21 14.09 СВ 3 16 км в посл. час дождь н/о +26.7 +25.7 94 +39 +39 очень
душно
1006.9 1006.3
00 15.09 В 2 20 км 5/5 600 м
[]
+27.8 +26.0 90 +42 +43 опасность
перегрева
1008.3 1007.7 0.1
03 15.09 СВ 3 22 км 8/8 600 м
[]
+31.3 +27.2 79 +50 +52 опасность
перегрева
1008.8 1008.2
06 15.09 СВ 3 22 км 4/4 600 м
[]
+31.9 +27.1 76 +50 +59 опасность
перегрева
1006.7 1006.1 +25.8
09 15.09 С 2 24 км 6/6 600 м
[]
+30.7 +26.2 77 +46 +48 опасность
перегрева
1006.1 1005.5
12 15.09 СВ 2 20 км 4/4 <50 м
[]
+27.6 +25.0 86 +40 +40 очень
душно
1007.5 1006.9
15 15.09 В 1 25 км н/о +27.0 +25.0 89 +39 +39 очень
душно
1008.6 1008.0
18 15.09 В 1 14 км н/о +26.6 +24.6 89 +38 +38 очень
душно
1007.6 1007.0 +32.1
21 15.09 СВ 1 19 км н/о +25.6 +24.0 91 +35 +35 очень
душно
1007.2 1006.6
00 16.09 С 1 15 км 3/3 600 м
[]
+26.8 +25.9 95 +40 +42 очень
душно
1008.4 1007.8
03 16.09 С 2 19 км 4/4 600 м
[]
+30.9 +26.6 78 +48 +58 опасность
перегрева
1008.5 1007.9
06 16.09 С 3 22 км 4/4 600 м
[]
+32.8 +27.1 72 +51 +60 опасность
перегрева
1006.1 1005.5 +24.9
09 16.09 С 2 20 км 3/3 600 м
[]
+31.5 +26.5 75 +48 +50 опасность
перегрева
1005.2 1004.6
12 16.09 С 4 17 км 6/6 600 м
[]
+28.1 +25.1 84 +41 +41 опасность
перегрева
1006.4 1005.8
15 16.09 С 3 19 км н/о +28.0 +25.0 84 +40 +40 очень
душно
1007.8 1007.2
18 16.09 В 1 10 км н/о +26.6 +25.0 91 +38 +38 очень
душно
1007.0 1006.4 +33.0
21 16.09 С 2 20 км н/о +26.8 +24.5 87 +38 +38 очень
душно
1006.7 1006.1
00 17.09 С 2 17 км 6/6 600 м
[]
+28.2 +26.0 88 +42 +44 опасность
перегрева
1008.4 1007.8
03 17.09 С 3 18 км 8/8 600 м
[]
+31.9 +26.5 73 +48 +51 опасность
перегрева
1009.0 1008.4
06 17.09 С 2 17 км 9/9 600 м
[]
+32.3 +27.3 75 +51 +53 опасность
перегрева
1007.0 1006.4 +26.4
09 17.09 С 3 17 км 9/9 600 м
[]
+30.0 +26.0 79 +45 +45 опасность
перегрева
1006.1 1005.5
12 17.09 СВ 3 12 км {дождь} 9/9 600 м
[]
+27.4 +25.8 91 +41 +41 опасность
перегрева
1007.7 1007.1 1
15 17.09 СВ 1 12 км н/о +27.3 +25.9 92 +41 +41 опасность
перегрева
1009.0 1008.4
18 17.09 В 2 18 км н/о +27.0 +25.2 90 +39 +39 очень
душно
1007.8 1007.2 +33.2
21 17.09 В 2 12 км н/о +27.2 +25.0 88 +39 +39 очень
душно
1007.6 1007.0
00 18.09 В 3 21 км 9/9 600 м
[]
+28.6 +25.8 85 +43 +43 опасность
перегрева
1009.3 1008.7
03 18.09 В 3 21 км 9/9 600 м
[]
+30.4 +26.1 78 +46 +47 опасность
перегрева
1009.9 1009.3
06 18.09 СВ 2 23 км 9/9 600 м
[]
+32.4 +27.2 74 +51 +53 опасность
перегрева
1008.5 1007.9 +26.9
09 18.09 В 3 25 км 9/9 600 м
[]
+28.8 +24.8 79 +41 +41 опасность
перегрева
1008.5 1007.9
12 18.09 В 3 30 км 9/9 600 м
[]
+28.2 +25.4 85 +41 +41 опасность
перегрева
1010.1 1009.5
15 18.09 В 2 30 км н/о +27.8 +24.8 84 +40 +40 очень
душно
1011.2 1010.6
18 18.09 В 2 16 км ?/? +27.1 +25.5 91 +40 +40 очень
душно
1010.1 1009.5 +32.4 0.3
21 18.09 Ю 2 28 км н/о +27.0 +24.6 87 +38 +38 очень
душно
1010.1 1009.5
00 19.09 ЮВ 2 30 км 8/8 600 м
[]
+27.3 +24.8 86 +39 +39 очень
душно
1011.9 1011.3 2
03 19.09 Ю 1 30 км 8/8 600 м
[]
+29.7 +25.0 76 +43 +47 опасность
перегрева
1012.0 1011.4
06 19.09 С 2 22 км 5/5 600 м
[]
+30.8 +25.4 73 +45 +54 опасность
перегрева
1010.0 1009.4 +25.9
09 19.09 СВ 2 25 км 8/8 600 м
[]
+31.3 +25.2 70 +45 +46 опасность
перегрева
1008.9 1008.3
12 19.09 СВ 2 15 км 8/8 600 м
[]
+27.8 +24.6 83 +39 +39 очень
душно
1010.1 1009.5
15 19.09 В 2 18 км н/о +27.7 +23.7 79 +38 +38 очень
душно
1011.5 1010.9
18 19.09 В 1 15 км н/о +26.9 +23.6 82 +37 +37 очень
душно
1010.1 1009.5 +31.8
21 19.09 В 2 16 км ?/? +26.6 +23.3 82 +36 +36 очень
душно
1009.3 1008.7

 

Местоположение метеостанции Санху Дао (Хайнань, Китай): широта 16.53 долгота 111.61 высота над уровнем моря 5 м.

В архиве по умолчанию представлена погода на Санху Дао за последнюю неделю. Архивные данные за месяц целиком и за предыдущие месяцы, начиная с января 2011 года, Вы можете получить, выбрав интересующий диапазон дат из раскрывающегося списка и нажав кнопку "Ввод!".


*Определитесь, кто Вы:
робот инопланетянин человек

Внимание! Время в таблицах - всемирное. Для получения местного времени необходимо прибавить поправку, которая равна 8 ч.

Смотрите также архив погоды в соседних городах и на ближайших метеорологических станциях:

Погода на Сиша Дао (Хайнань, Китай) (84 км)
Погода в Ясяне (Хайнань, Китай) (292 км)
Погода в Цюнхае (Хайнань, Китай) (324 км)
Погода в Куангнгае (Вьетнам) (341 км)
Погода в Дананге (Вьетнам) (352 км)
Погода в Данься (Ганьсу, Китай) (396 км)
Погода в Куинёне (Вьетнам) (401 км)
Погода в Хайкоу (Хайнань, Китай) (411 км)
Погода в Дунфане (Хайнань, Китай) (427 км)
Погода в Хюэ (Вьетнам) (430 км)

Пояснения к столбцам:

Ветер - указаны скорость ветра в м/с - средняя за 10 мин, порывы в срок и между сроками (в фигурных скобках) и направление, откуда дует ветер: С - северный, СВ - северо-восточный, В - восточный, ЮВ - юго-восточный, Ю - южный, ЮЗ - юго-западный, З - западный, СЗ - северо-западный.
Видимость - горизонтальная дальность видимости в метрах или километрах. При видимости от 1 до 10 км при отсутствии осадков обычно наблюдается дымка, при ухудшении видимости до 1 км и менее - туман. В сухую погоду видимость может ухудшаться дымом, пылью или мглою.
Явления - указаны атмосферные явления, наблюдавшиеся в срок или в последний час перед сроком; фигурными скобками обозначены явления, наблюдавшиеся между сроками (за 1-3 часа до срока); квадратными скобками обозначены град или гололедные отложения с указанием их диаметра в мм.
Облачность - указаны через наклонную черту общая и нижняя облачность в баллах и высота нижней границы облаков в метрах; квадратными скобками обозначены формы облаков: Ci - перистые, Cs - перисто-слоистые, Cc - перисто-кучевые, Ac - высококучевые, As - высокослоистые, Sc - слоисто-кучевые, Ns - слоисто-дождевые, Cu - кучевые, Cb - кучево-дождевые. Подробнее классификацию облаков см. в Атласе облаков (PDF).
T - Температура воздуха - температура, измеренная на высоте 2 м над землей.
Td - Температура точки росы - температура, при понижении до которой содержащийся в воздухе водяной пар достигнет насыщения.
f - Относительная влажность воздуха - влажноcть воздуха, измеренная на высоте 2 м над землей.
Te - Эффективная температура - температура, которую ощущает одетый по сезону человек в тени. Характеристика душности погоды. При расчете учитывается влияние влажности воздуха и скорости ветра на теплоощущения человека.
Tes - Эффективная температура на солнце - температура, которую ощущает человек, с поправкой на солнечный нагрев. Характеристика знойности погоды. Зависит от высоты солнца над горизонтом, облачности и скорости ветра. Ночью, в пасмурную погоду, а также при ветре 12 м/с и более поправка равна нулю.
P - Атмосферное давление - приведенное к уровню моря атмосферное давление.
Po - Атмосферное давление - измеренное на уровне метеостанции атмосферное давление.
Tmin - Минимальная температура - минимум температуры воздуха на высоте 2 м над землей.
Tmax - Максимальная температура - максимум температуры воздуха на высоте 2 м над землей.
R - Количество осадков - Количество выпавших осадков за период времени, мм. При наведении курсора мыши на число - период времени, за который выпало указанное количество осадков.
R24 - Количество осадков - Количество выпавших осадков за 24 часа, мм.
S - Снежный покров - Высота снежного покрова, см. При наведении курсора мыши на число - состояние снежного покрова и степень покрытия местности в баллах.